[Date Prev][Date Next][Thread Prev][Thread Next][Date Index][Thread Index]

[jamsat-news:1418] jas2info #210



========================   最新情報   ==============================

        Last updated :Fri12JAN2001  21:30 (JST) #210
====================================================================
   
  1)アマチュア通信衛星情報、FOシリーズの軌道要素、テレメトリ、QSOの
   状況等をまとめてみました.
   
   FO−29の2001年1月12日(金)の20:08(JST)のパスでは
  JARLホームページのとうりアナログ運用でした。
  今まで観測したテレメトリーと分析結果を掲載しておきます.

 AS21759C1   12Jan2001
 20:08-20:15(JST)
 Freq.435.799-.793MHz

 HI HI AE 07 88 55 00 D4 B3 7A 09 22 98 69 00 90 82 81 8C    AE AA AB AD AC 
 HI HI AE 07 88 55 00 D5 B3 7A 09 22 98 65 00 89 8O 81 8C 8B AE AA AB AD AC 
 HI HI AE 07 88 55 00 D4 B3 7A 09 22 97 68 00 69 82 81 8C 7C AE AA AB AD AC 
 HI HI AE 07 88 55 00 D4 B3 7A 09 22 98 6A 00 89 82 81 8C 55 AE AA AB AD AC 
 HI HI AE 07 88 55 00 D4 B3 7A 09 22 98 6C 00 89 81 81 8C 61 AE AA AB AD AC 
 HI HI AE 07 88 55 00 D4 B3 7A 09 22 97 6F 00 88 81 81 8C    AF AA AC AD AB 
 HI HI AE 07 88 55 00 D4 B3 7A 09 22 95 73 00 88 81 80 8C 58 AF AA AC AE AB 
 HI HI AE 07 88 55 00 D4 B3 7A 09 22 94 77 00 88 81 80 8B 60 AF AB AC AE AB 
 HI HI AE 07 88 55 00 D4 B3 7A 06 22 92 7B 00 89 81 80 8B 6D AF AB AC AE AB 

 AS21740C1   11JAN2001
 11:38-11:44(JST)
 Freq.435.798-.795MHz

 HI HI AE C7 88 55 00 D4 DC 53 09 37 8B 5A 7B 60    B0 85 AE AA AE AE AE 
 HI HI AE C7 88 55 00 D4 DC 53 09 37 59          92 B0 81 AE AA AE AE AE 
 HI HI AE C7 88 55 01 D4 DC 53 09 37 A7 8D 58 80 8F B0 79 AE AA AE AF AE 
 HI HI AE C7 88 55 01 D4 DC 53 09 37 8E 
 Hi HI AE C7 88 55 01 D4 DC 53 09 37 85 8C 60 92 8F B0 77 AE AA AE AF AE

 AS21699C1   8JAN2001
 10:47-11:00(JST)
 Freq.435.804-.788MHz CW

 HI HI AE C7 88 55 00 D4 7F BC 09 53 83 9C 8C 5F 91 8F B0 69 B3 AA A9 B2 AE 
 HI HI AE 07 88 55 00 D4 7F BC 09 53 83 9B 88 5F 92 90 B0 7B B3 AA A9 B2 AE 
 HI HI AE C7 88 55 00 D4 7F BC 09 53 81 9C 85 5F 91 8F B0 71 B3 AA A9 B1 AE 
 HI HI AE C7 88 55 00 D4 7F BC 09 53 7F 9D 7F 60 92 90 B0 8C B3 A9 A9 B1 AE 
 HI HI AE C7 88 55 00 D4 7F BC 09 53 7B A0 7B 5F 91 8F B0 85 B3 A9 A8 B1 AE 
 HI HI AE C7 88 55 00 D4 7F BC 09 53 78 A4 7C 60 93 91 B0 82 B3 A9 A8 B2 AE 
 HI HI AE C7 88 55 00 D4 7F BC 09 53 77 A7 7A 5F 91 90 B0 7D B2 A9 A8 B1 AE 
 HI HI AE C7 88 55 00 D4 7F BC 09 53 6D AD 78 5F 91 8F B0 72 B2 A9 A8 B1 AE 
 HI HI AE C7 88 55 00 D4 7F BC 09 53 65 B2 73 5F 91 8F B0 73 B2 A8 A8 B1 AE 
 HI HI AE C7 88 55 00 D4 7F BC 09 53 63 B6 73 5F 91 8F BO 7A B2 A8 A8 B0 AE 
 HI HI AE C7 88 55 00 D4 7F BC 09 53 5E B9 71 5F 91 8F B0 79 BF A8 A8 B1 AE 
 HI HI AE C7 88 55 00 D4 7F BC 09 53 5A BB 6B 5F 91 8F B0 78 B2 A8 A8 B0 AE 
 HI HI AE C7 88 55 00 D4 7F BC 09 53 56 BB 69 60 91 8F B0 8E B2 A8 A7 B0 AE 
 HI HI AE C7 88 55 00 D4 7F BC 09 53 53 B9 64 5F 91 8F B0 7C B2 A8 A7 B0 AE 
 HI HI AE C7 88 55 00 D4 7F BC 09 53 50 B6 5E 60 91 8F B0 80 B2 A7 A7 B0 AE 
 HI HI AE C7 88 55 00 D4 7F BC 09 53 4F B1 59 5F 92 90 B0 8D B2 A7 A7 B0 AE 
 HI HI AE C7 88 55 00 D4 7F BC 09 53 4D AB 58 60 92 90 B0 6A B1 A7 A7 B0 AE 
 HI HI AE C7 88 55 00 D4 7F BC 09 53 4C A3 56 60 92 92 B0 7C B1 A7 A7 B0 AE

 AS21672C1   6JAN2001
 10:54-11:05(JST)
 Freq.435.800-.788MHz

 HI HI AE C7 88 55 00 D4 25 3A 09 04 43 90 64 60 92 90 B0 64 B0 AD AB AC AC 
 HI HI AE C7 88 55 00 D4 25 3A 09 04 45 8F 63 55 93 90 B0 72 B0 AD AA AC AC 
 HI HI AE C7 88 55 00 D4 25 3A 09 04 40 97 5F 60 91 8F B0 89 B0 AD AA AC AC 
 HI HI AE 07 88 55 00 D4 25 3A 09 04 41 9D 62 60 92 8F B0 6B AF AC AA AB AC 
 HI HI AE C7 88 55 00 D4 25 3A 09 04 46 A0 61 5F 92 90 B0 7F AF AC AA AB AC 
 HI HI AE C7 88 55 00 D4 25 3A 09 04 50 9F 65 60 92 8F B0 7C AF AC AA AB AC 
 HI HI AE C7 88 55 00 D4 25 3A 09 04 5F 9D 64 5F 91 8F B0 7C AF AC AA AB AC 
 HI HI AE C7 88 55 00 D4 25 3A 09 04 6F 97 67 60 92 90 B0 7E AF AC A9 AB AC 
 HI HI AE C7 88 55 00 D4 25 3A 09 04 81 90 67 5F 91 8F B0 81 AF AC A9 AB AC 
 HI HI AE C7 88 55 00 D4 25 3A 09 04 93 8A 64 60 93 90 B0 7F AF AC A9 AA AC 
 HI HI AE C7 88 55 00 D4 25 3A 09 04 A2 82 67 60 92 90 B0 7D AF AB A9 AA AC 
 HI HI AE C7 88 55 00 D4 25 3A 09 04 AD 7D 65 5F 91 8F B0 79 AE AB A9 AA AC 
 HI HI AE C7 88 55 00 D4 25 3A 09 04 B4 7B 67 5F 91 8F B0 73 AE AB A9 AA AC 
 HI HI AE C7 88 55 00 D4 25 3A 09 04 B5 7C 67 5F 91 8U B0 83 AE AB A9 AA AC 
 HI HI AE C7 88 55 00 D4 25 3A 09 04 B3 7F 69 5F 91 8F B0 80 AE AD A9 AA AC
  
 ------------------------ FO-29の軌道要素 ------------------------------        
 
  ■ 軌道要素1:「jamsat−keps:1064」より         
          SB KEPS @ AMSAT  $ORB01011.N
              2Line Orbital Elements 01011.AMSAT

 HR AMSAT ORBITAL ELEMENTS FOR AMATEUR SATELLITES IN NASA FORMAT
 FROM WA5QGD FORT WORTH,TX January 11, 2001
 SEND SUBSCRIBE/UNSUBSCRIBE TO majordomo@amsat.org ONLY
 BID: ORB01011.N

 DECODE 2-LINE ELSETS WITH THE FOLLOWING KEY:
 1 AAAAAU 00  0  0 BBBBB.BBBBBBBB  .CCCCCCCC  00000-0  00000-0 0  DDDZ
 2 AAAAA EEE.EEEE FFF.FFFF GGGGGGG HHH.HHHH III.IIII JJ.JJJJJJJJKKKKKZ
 KEY: A-CATALOGNUM B-EPOCHTIME C-DECAY D-ELSETNUM E-INCLINATION F-RAAN
 G-ECCENTRICITY H-ARGPERIGEE I-MNANOM J-MNMOTION K-ORBITNUM Z-CHECKSUM

  FO-29
 1 24278U 96046B   01010.73530736  .00000059  00000-0  94122-4 0 04085
  2 24278 098.5682 257.1241 0351621 049.8210 313.3159 13.52755194217352 
  

 ■ 軌道要素2:「jamsat−keps:1065」より                    
         SB KEPS @ AMSAT  $ORB01011.O
            Orbital Elements  01011.OSCAR

 HR AMSAT ORBITAL ELEMENTS FOR OSCAR SATELLITES
 FROM WA5QGD FORT WORTH,TX January 11, 2001
 SEND SUBSCRIBE/UNSUBSCRIBE TO majordomo@amsat.org ONLY
 BID: ORB01011.O
 TO ALL RADIO AMATEURS BT

  Satellite: FO-29
 Catalog number: 24278
 Epoch time:      01010.73530736
 Element set:    0408
 Inclination:      098.5682 deg
 RA of node:       257.1241 deg
 Eccentricity:    0.0351621
 Arg of perigee:   049.8210 deg
 Mean anomaly:     313.3159 deg
 Mean motion:   13.52755194 rev/day
 Decay rate:        5.9e-07 rev/day^2
 Epoch rev:           21735
 Checksum:              294
 
-------------------  FO-29(JAS-2)のテレメトリに関する情報  ---------------------- 
 
2)上記テレメトリー1月12日のテレメトリ最終行を分析しておきます.
 
  AS21759C1   12Jan2001
  20:08-20:15(JST)
  Freq.435.799-.793MHz
 
 HI HI AE 07 88 55 00 D4 B3 7A 06 22 92 7B 00 89 81 80 8B 6D AF AB AC AE AB 

    テレメトリ  内 容          換算算値 単 位  
      3C	磁気センサーZ軸	=       71568.6[nT]	
    3D	磁気センサX軸	=	60294.1[nT]	
    4A	太陽電池発生電流	=	  0.0[mA]	
    4B	B充放電電流  	=	 685.2[mA]	
    4C	B端子電圧  	=	   13.9[V]	
    4D	B中間端子電圧	=	    6.2[V]	
    5A	バス電圧	    = 	   13.6[V]	
    5B	JTA送信電力	=         610.4[mW]	
    5C 	構体温度1	=	   13.9[℃]	
    5D	構体温度2  	=     	   15.5[℃]	
    6A	構体温度3	=	   15.1[℃]	
    6B	構体温度4	=	   14.3[℃]	
    6C	Bセル温度	=	   15.5[℃]	
	
 ===========================  FO-29(ふじ3号)のQSO情報等 ======================
   
 3)[jamsat-bb:

 ===============================================================================
   4)JARL のホームページに運用予定が記載されていましたのでご紹介します.
       ( http://www.jarl.or.jp/Japanese/3_Fuji/new/uy.htm )

        ■ ふじ3号/FOー29/JAS-2 ■  
   
     *** 運用予定について ***
    
    12月25日〜平成13年1月31日 アナログ系運用 

  *なお,運用予定は都合により変更することがありますので予めご了承願います。

 照会先 : lab@jarl.or.jp

 最新の情報はテレホンサービス(03−3942−1000)をお聞きください。  
 以後の運用につきましては平成13年2月上旬にお知らせ致します。
 
-----------------------    FO−20(JAS-1b)道要素   -------------------------
  5)
  ■ 軌道要素1 :出典はFO-29「ふじ3号」に同じ.
  
  FO-20
 1 20480U 90013C   01010.84078946 -.00000005  00000-0  70153-4 0  2826
 2 20480  99.0718 108.5850 0540400 305.4270  49.7501 12.83285613511913
 
  ■ 軌道要素2 :出典はFO−29「ふじ3号」に同じ.
               
  Satellite: FO-20
 Catalog number: 20480
 Epoch time:      01010.84078946
 Element set:     282
 Inclination:       99.0718 deg
 RA of node:       108.5850 deg
 Eccentricity:    0.0540400
 Arg of perigee:   305.4270 deg
 Mean anomaly:      49.7501 deg
 Mean motion:   12.83285613 rev/day
 Decay rate:       -5.0e-08 rev/day^2
 Epoch rev:           51191
 Checksum:              271
 --------------------------------------------------------------------------------
 
         ■ ふじ2号/FO−20/JAS-1b ■      
            
          「ふじ2号」 現況                                                                                  
             
   JAS-1b(ふじ2号)のCWテレメトリ信号に,1997年10月12日12時(JST)の
 日本上空通過時,3桁の数字が繰り返されるはずが3個の長音の繰り返しとなっているという
 異常が発見されました。この不具合は次の通過時からは回復していましたが13日15時20分の
 通過時に再び観測されました。現在はA0の送信が続いています。衛星のアナログ系中継モード
 動作は異常が無く,正常時のテレメトリ内容からは衛星の動作に異常は認められません。従って,
 直ちに衛星のミッションに影響することは無いと予想されますので,当面はアナログ系中継
 モードを継続します。衛星は既に打ち上げてから7年8ヶ月を経ておりますので,今後は監視を
 強化する予定です。アマチュア各位のレポートをお待ちします。
 -------------------------------------------------------------------------------- 
  1997年10月14日 00時35分 確認のテレメトリ音 151 KB (A0) 
  1997年10月14日 11時10分 確認のテレメトリ音 216 KB (異常キーイング) 

  以上 JARLのホ−ムページの http://www.jarl.or.jp/Japanese/3_Fuji/new/fuji.htm

===================== FO-20 ふじ2号 のテレメトリ観測結果 ====================

   12月22日(金)の12:21(JST)のパスの観測結果では以前観測した
 単一周波数のドップラー効果で周波数がずれていくのみの状態に戻っておりました。
                                         
   =============   JAS-2 (ふじ3号)と現在までの情報   ===========
  
  A.電話によるふじ3号の運用情報
      社団法人日本アマチュア連盟によるサービス
           TEL .   03− 3942 − 1000
  B.アマチュア無線FAXサービス
      JARLによるふじ3号の軌道情報(オービットカレンダー)
         FAX No.  03− 3233 −0055
  C.WWWブラウザで情報を簡単に見れる人のためにJAS−2
     ふじ3号の衛星としての運用されるまでの名前)の概要、打ち上げ
     までの状況、運用中における状況を説明したホームページを紹介し
     ておきます.
     社団法人日本アマチュア無線連盟(JARL)のホームページ

          http://www.jarl.or.jp/Japanese/3_Fuji/jasmenu.htm
 
     宇宙開発事業団(NASDA)ホームページ 
          http://www.nasda.go.jp/
         打上げ衛星 :地球観測プラットフォーム技術衛星(ADEOS) 
                       アマチュア衛星3号(JAS-2)
          http://yyy.tksc.nasda.go.jp/Home/Press/Press-j/jas-2_j.html        

  D.JAMSATによる軌道情報の活用
        JAMSATのホームページまたはjamsat−kepsの軌道要素より
      衛星の軌道情報を得る.
     JAMSATホームページ
               URL    http://www.jamsat.or.jp
       上記ホームページでは各地で行われるアマチュア通信衛星に関する
      ミューティングのお知らせや世界のアマチュア衛星に関する情報が
      満載されています.
 ========================================================================  
     JAMSATのメンバーのご協力によりJH6MME(高山 秀造)が
    執筆・編集を担当しております.ご指摘の意見、疑問やこのようにしたら
    というアイデアがありましたら小さなことでもかまいませんので気軽に下
    記アドレスまでご連絡ください.jamsat−newsからjas2
    infoへの転載をJH4PHW局坂井さんに担当して頂いております.  
                  E-mail : jh6mme@jamsat.or.jp : jh4phw@jamsat.or.jp
 ===============================   END  ===============================